Year,Month,Day,Hour,Minute,Value (Times are PST for temperature in C)
2013,07,23,00,00,17.40
2013,07,23,00,01,17.30
2013,07,23,00,02,17.30
2013,07,23,00,03,17.30
2013,07,23,00,04,17.30
2013,07,23,00,05,17.30
2013,07,23,00,06,17.30
2013,07,23,00,07,17.30
2013,07,23,00,08,17.30
2013,07,23,00,09,17.30
2013,07,23,00,10,17.30
2013,07,23,00,11,17.30
2013,07,23,00,12,17.30
2013,07,23,00,13,17.40
2013,07,23,00,14,17.50
2013,07,23,00,15,17.60
2013,07,23,00,16,17.60
2013,07,23,00,17,17.70
2013,07,23,00,18,17.70
2013,07,23,00,19,17.80
2013,07,23,00,20,17.80
2013,07,23,00,21,17.80
2013,07,23,00,22,17.80
2013,07,23,00,23,17.80
2013,07,23,00,24,17.80
2013,07,23,00,25,17.80
2013,07,23,00,26,17.80
2013,07,23,00,27,17.80
2013,07,23,00,28,17.80
2013,07,23,00,29,17.80
2013,07,23,00,30,17.90
2013,07,23,00,31,17.90
2013,07,23,00,32,17.90
2013,07,23,00,33,17.90
2013,07,23,00,34,18.00
2013,07,23,00,35,18.00
2013,07,23,00,36,17.90
2013,07,23,00,37,17.90
2013,07,23,00,38,17.90
2013,07,23,00,39,17.80
2013,07,23,00,40,17.80
2013,07,23,00,41,17.80
2013,07,23,00,42,17.80
2013,07,23,00,43,17.70
2013,07,23,00,44,17.70
2013,07,23,00,45,17.70
2013,07,23,00,46,17.70
2013,07,23,00,47,17.70
2013,07,23,00,48,17.70
2013,07,23,00,49,17.70
2013,07,23,00,50,17.70
2013,07,23,00,51,17.60
2013,07,23,00,52,17.60
2013,07,23,00,53,17.50
2013,07,23,00,54,17.50
2013,07,23,00,55,17.40
2013,07,23,00,56,17.30
2013,07,23,00,57,17.30
2013,07,23,00,58,17.30
2013,07,23,00,59,17.20
2013,07,23,01,00,17.20
2013,07,23,01,01,17.10
2013,07,23,01,02,17.10
2013,07,23,01,03,17.00
2013,07,23,01,04,17.00
2013,07,23,01,05,16.90
2013,07,23,01,06,16.90
2013,07,23,01,07,16.90
2013,07,23,01,08,16.80
2013,07,23,01,09,16.80
2013,07,23,01,10,16.80
2013,07,23,01,11,16.70
2013,07,23,01,12,16.70
2013,07,23,01,13,16.70
2013,07,23,01,14,16.60
2013,07,23,01,15,16.60
2013,07,23,01,16,16.60
2013,07,23,01,17,16.60
2013,07,23,01,18,16.60
2013,07,23,01,19,16.60
2013,07,23,01,20,16.60
2013,07,23,01,21,16.60
2013,07,23,01,22,16.60
2013,07,23,01,23,16.60
2013,07,23,01,24,16.60
2013,07,23,01,25,16.70
2013,07,23,01,26,16.70
2013,07,23,01,27,16.60
2013,07,23,01,28,16.60
2013,07,23,01,29,16.50
2013,07,23,01,30,16.50
2013,07,23,01,31,16.50
2013,07,23,01,32,16.40
2013,07,23,01,33,16.40
2013,07,23,01,34,16.30
2013,07,23,01,35,16.30
2013,07,23,01,36,16.20
2013,07,23,01,37,16.20
2013,07,23,01,38,16.20
2013,07,23,01,39,16.10
2013,07,23,01,40,16.00
2013,07,23,01,41,16.00
2013,07,23,01,42,15.90
2013,07,23,01,43,15.90
2013,07,23,01,44,16.00
2013,07,23,01,45,16.00
2013,07,23,01,46,16.00
2013,07,23,01,47,16.00
2013,07,23,01,48,16.00
2013,07,23,01,49,16.20
2013,07,23,01,50,16.30
2013,07,23,01,51,16.30
2013,07,23,01,52,16.30
2013,07,23,01,53,16.40
2013,07,23,01,54,16.40
2013,07,23,01,55,16.50
2013,07,23,01,56,16.50
2013,07,23,01,57,16.60
2013,07,23,01,58,16.60
2013,07,23,01,59,16.70
2013,07,23,02,00,16.70
2013,07,23,02,01,16.70
2013,07,23,02,02,16.70
2013,07,23,02,03,16.60
2013,07,23,02,04,16.60
2013,07,23,02,05,16.60
2013,07,23,02,06,16.60
2013,07,23,02,07,16.70
2013,07,23,02,08,16.70
2013,07,23,02,09,16.70
2013,07,23,02,10,16.60
2013,07,23,02,11,16.60
2013,07,23,02,12,16.50
2013,07,23,02,13,16.50
2013,07,23,02,14,16.40
2013,07,23,02,15,16.30
2013,07,23,02,16,16.20
2013,07,23,02,17,16.10
2013,07,23,02,18,16.00
2013,07,23,02,19,15.90
2013,07,23,02,20,15.90
2013,07,23,02,21,15.80
2013,07,23,02,22,15.80
2013,07,23,02,23,15.70
2013,07,23,02,24,15.60
2013,07,23,02,25,15.50
2013,07,23,02,26,15.50
2013,07,23,02,27,15.40
2013,07,23,02,28,15.40
2013,07,23,02,29,15.40
2013,07,23,02,30,15.40
2013,07,23,02,31,15.40
2013,07,23,02,32,15.40
2013,07,23,02,33,15.30
2013,07,23,02,34,15.30
2013,07,23,02,35,15.30
2013,07,23,02,36,15.20
2013,07,23,02,37,15.20
2013,07,23,02,38,15.10
2013,07,23,02,39,15.00
2013,07,23,02,40,15.00
2013,07,23,02,41,15.00
2013,07,23,02,42,15.00
2013,07,23,02,43,15.00
2013,07,23,02,44,14.90
2013,07,23,02,45,14.90
2013,07,23,02,46,14.80
2013,07,23,02,47,14.80
2013,07,23,02,48,14.70
2013,07,23,02,49,14.70
2013,07,23,02,50,14.70
2013,07,23,02,51,14.70
2013,07,23,02,52,14.70
2013,07,23,02,53,14.70
2013,07,23,02,54,14.70
2013,07,23,02,55,14.70
2013,07,23,02,56,14.70
2013,07,23,02,57,14.70
2013,07,23,02,58,14.80
2013,07,23,02,59,14.80
2013,07,23,03,00,14.80
2013,07,23,03,01,14.80
2013,07,23,03,02,14.80
2013,07,23,03,03,14.70
2013,07,23,03,04,14.70
2013,07,23,03,05,14.70
2013,07,23,03,06,14.60
2013,07,23,03,07,14.60
2013,07,23,03,08,14.60
2013,07,23,03,09,14.50
2013,07,23,03,10,14.50
2013,07,23,03,11,14.40
2013,07,23,03,12,14.40
2013,07,23,03,13,14.30
2013,07,23,03,14,14.30
2013,07,23,03,15,14.30
2013,07,23,03,16,14.30
2013,07,23,03,17,14.30
2013,07,23,03,18,14.30
2013,07,23,03,19,14.40
2013,07,23,03,20,14.40
2013,07,23,03,21,14.30
2013,07,23,03,22,14.30
2013,07,23,03,23,14.30
2013,07,23,03,24,14.40
2013,07,23,03,25,14.40
2013,07,23,03,26,14.40
2013,07,23,03,27,14.50
2013,07,23,03,28,14.60
2013,07,23,03,29,14.70
2013,07,23,03,30,14.70
2013,07,23,03,31,14.80
2013,07,23,03,32,14.80
2013,07,23,03,33,14.90
2013,07,23,03,34,15.00
2013,07,23,03,35,15.00
2013,07,23,03,36,15.00
2013,07,23,03,37,15.00
2013,07,23,03,38,15.00
2013,07,23,03,39,15.00
2013,07,23,03,40,15.00
2013,07,23,03,41,14.90
2013,07,23,03,42,14.90
2013,07,23,03,43,14.80
2013,07,23,03,44,14.80
2013,07,23,03,45,14.70
2013,07,23,03,46,14.70
2013,07,23,03,47,14.60
2013,07,23,03,48,14.60
2013,07,23,03,49,14.60
2013,07,23,03,50,14.60
2013,07,23,03,51,14.60
2013,07,23,03,52,14.60
2013,07,23,03,53,14.60
2013,07,23,03,54,14.50
2013,07,23,03,55,14.50
2013,07,23,03,56,14.50
2013,07,23,03,57,14.50
2013,07,23,03,58,14.50
2013,07,23,03,59,14.40
2013,07,23,04,00,14.40
2013,07,23,04,01,14.40
2013,07,23,04,02,14.40
2013,07,23,04,03,14.40
2013,07,23,04,04,14.40
2013,07,23,04,05,14.40
2013,07,23,04,06,14.50
2013,07,23,04,07,14.50
2013,07,23,04,08,14.60
2013,07,23,04,09,14.60
2013,07,23,04,10,14.70
2013,07,23,04,11,14.80
2013,07,23,04,12,14.90
2013,07,23,04,13,15.00
2013,07,23,04,14,15.00
2013,07,23,04,15,15.00
2013,07,23,04,16,15.00
2013,07,23,04,17,15.20
2013,07,23,04,18,15.30
2013,07,23,04,19,15.30
2013,07,23,04,20,15.50
2013,07,23,04,21,15.50
2013,07,23,04,22,15.60
2013,07,23,04,23,15.70
2013,07,23,04,24,15.80
2013,07,23,04,25,15.90
2013,07,23,04,26,16.00
2013,07,23,04,27,16.10
2013,07,23,04,28,16.20
2013,07,23,04,29,16.20
2013,07,23,04,30,16.20
2013,07,23,04,31,16.30
2013,07,23,04,32,16.30
2013,07,23,04,33,16.30
2013,07,23,04,34,16.30
2013,07,23,04,35,16.30
2013,07,23,04,36,16.30
2013,07,23,04,37,16.30
2013,07,23,04,38,16.30
2013,07,23,04,39,16.40
2013,07,23,04,40,16.40
2013,07,23,04,41,16.40
2013,07,23,04,42,16.40
2013,07,23,04,43,16.30
2013,07,23,04,44,16.30
2013,07,23,04,45,16.30
2013,07,23,04,46,16.30
2013,07,23,04,47,16.30
2013,07,23,04,48,16.30
2013,07,23,04,49,16.30
2013,07,23,04,50,16.30
2013,07,23,04,51,16.20
2013,07,23,04,52,16.20
2013,07,23,04,53,16.20
2013,07,23,04,54,16.10
2013,07,23,04,55,16.10
2013,07,23,04,56,16.00
2013,07,23,04,57,15.90
2013,07,23,04,58,15.80
2013,07,23,04,59,15.80
2013,07,23,05,00,15.70
2013,07,23,05,01,15.70
2013,07,23,05,02,15.60
2013,07,23,05,03,15.60
2013,07,23,05,04,15.50
2013,07,23,05,05,15.50
2013,07,23,05,06,15.40
2013,07,23,05,07,15.40
2013,07,23,05,08,15.30
2013,07,23,05,09,15.30
2013,07,23,05,10,15.20
2013,07,23,05,11,15.20
2013,07,23,05,12,15.00
2013,07,23,05,13,15.00
2013,07,23,05,14,15.00
2013,07,23,05,15,15.00
2013,07,23,05,16,15.00
2013,07,23,05,17,15.00
2013,07,23,05,18,15.00
2013,07,23,05,19,14.90
2013,07,23,05,20,14.80
2013,07,23,05,21,14.80
2013,07,23,05,22,14.80
2013,07,23,05,23,14.70
2013,07,23,05,24,14.70
2013,07,23,05,25,14.70
2013,07,23,05,26,14.70
2013,07,23,05,27,14.70
2013,07,23,05,28,14.70
2013,07,23,05,29,14.70
2013,07,23,05,30,14.70
2013,07,23,05,31,14.70
2013,07,23,05,32,14.70
2013,07,23,05,33,14.60
2013,07,23,05,34,14.60
2013,07,23,05,35,14.60
2013,07,23,05,36,14.60
2013,07,23,05,37,14.60
2013,07,23,05,38,14.60
2013,07,23,05,39,14.60
2013,07,23,05,40,14.60
2013,07,23,05,41,14.60
2013,07,23,05,42,14.60
2013,07,23,05,43,14.60
2013,07,23,05,44,14.60
2013,07,23,05,45,14.60
2013,07,23,05,46,14.60
2013,07,23,05,47,14.60
2013,07,23,05,48,14.60
2013,07,23,05,49,14.60
2013,07,23,05,50,14.60
2013,07,23,05,51,14.60
2013,07,23,05,52,14.60
2013,07,23,05,53,14.60
2013,07,23,05,54,14.60
2013,07,23,05,55,14.70
2013,07,23,05,56,14.70
2013,07,23,05,57,14.70
2013,07,23,05,58,14.70
2013,07,23,05,59,14.80
2013,07,23,06,00,14.70
2013,07,23,06,01,14.70
2013,07,23,06,02,14.60
2013,07,23,06,03,14.60
2013,07,23,06,04,14.60
2013,07,23,06,05,14.50
2013,07,23,06,06,14.50
2013,07,23,06,07,14.50
2013,07,23,06,08,14.50
2013,07,23,06,09,14.50
2013,07,23,06,10,14.40
2013,07,23,06,11,14.40
2013,07,23,06,12,14.40
2013,07,23,06,13,14.50
2013,07,23,06,14,14.50
2013,07,23,06,15,14.50
2013,07,23,06,16,14.60
2013,07,23,06,17,14.60
2013,07,23,06,18,14.70
2013,07,23,06,19,14.70
2013,07,23,06,20,14.80
2013,07,23,06,21,14.80
2013,07,23,06,22,14.90
2013,07,23,06,23,14.90
2013,07,23,06,24,15.00
2013,07,23,06,25,15.00
2013,07,23,06,26,15.00
2013,07,23,06,27,15.00
2013,07,23,06,28,15.00
2013,07,23,06,29,15.00
2013,07,23,06,30,15.00
2013,07,23,06,31,15.10
2013,07,23,06,32,15.10
2013,07,23,06,33,15.10
2013,07,23,06,34,15.20
2013,07,23,06,35,15.20
2013,07,23,06,36,15.20
2013,07,23,06,37,15.20
2013,07,23,06,38,15.30
2013,07,23,06,39,15.30
2013,07,23,06,40,15.30
2013,07,23,06,41,15.30
2013,07,23,06,42,15.30
2013,07,23,06,43,15.40
2013,07,23,06,44,15.40
2013,07,23,06,45,15.40
2013,07,23,06,46,15.50
2013,07,23,06,47,15.50
2013,07,23,06,48,15.50
2013,07,23,06,49,15.60
2013,07,23,06,50,15.60
2013,07,23,06,51,15.70
2013,07,23,06,52,15.70
2013,07,23,06,53,15.70
2013,07,23,06,54,15.80
2013,07,23,06,55,15.80
2013,07,23,06,56,15.80
2013,07,23,06,57,15.90
2013,07,23,06,58,15.90
2013,07,23,06,59,16.00
2013,07,23,07,00,16.00
2013,07,23,07,01,16.10
2013,07,23,07,02,16.10
2013,07,23,07,03,16.20
2013,07,23,07,04,16.20
2013,07,23,07,05,16.20
2013,07,23,07,06,16.30
2013,07,23,07,07,16.30
2013,07,23,07,08,16.40
2013,07,23,07,09,16.40
2013,07,23,07,10,16.40
2013,07,23,07,11,16.50
2013,07,23,07,12,16.50
2013,07,23,07,13,16.50
2013,07,23,07,14,16.60
2013,07,23,07,15,16.60
2013,07,23,07,16,16.60
2013,07,23,07,17,16.70
2013,07,23,07,18,16.70
2013,07,23,07,19,16.70
2013,07,23,07,20,16.80
2013,07,23,07,21,16.80
2013,07,23,07,22,16.90
2013,07,23,07,23,17.00
2013,07,23,07,24,17.00
2013,07,23,07,25,17.10
2013,07,23,07,26,17.20
2013,07,23,07,27,17.20
2013,07,23,07,28,17.20
2013,07,23,07,29,17.30
2013,07,23,07,30,17.40
2013,07,23,07,31,17.50
2013,07,23,07,32,17.60
2013,07,23,07,33,17.60
2013,07,23,07,34,17.70
2013,07,23,07,35,17.70
2013,07,23,07,36,17.80
2013,07,23,07,37,17.90
2013,07,23,07,38,17.90
2013,07,23,07,39,18.00
2013,07,23,07,40,18.00
2013,07,23,07,41,18.10
2013,07,23,07,42,18.10
2013,07,23,07,43,18.20
2013,07,23,07,44,18.20
2013,07,23,07,45,18.20
2013,07,23,07,46,18.30
2013,07,23,07,47,18.30
2013,07,23,07,48,18.30
2013,07,23,07,49,18.30
2013,07,23,07,50,18.40
2013,07,23,07,51,18.50
2013,07,23,07,52,18.50
2013,07,23,07,53,18.60
2013,07,23,07,54,18.60
2013,07,23,07,55,18.70
2013,07,23,07,56,18.70
2013,07,23,07,57,18.80
2013,07,23,07,58,18.80
2013,07,23,07,59,18.90
2013,07,23,08,00,18.90
2013,07,23,08,01,19.00
2013,07,23,08,02,19.00
2013,07,23,08,03,19.10
2013,07,23,08,04,19.10
2013,07,23,08,05,19.10
2013,07,23,08,06,19.20
2013,07,23,08,07,19.20
2013,07,23,08,08,19.20
2013,07,23,08,09,19.20
2013,07,23,08,10,19.20
2013,07,23,08,11,19.20
2013,07,23,08,12,19.20
2013,07,23,08,13,19.10
2013,07,23,08,14,19.10
2013,07,23,08,15,19.10
2013,07,23,08,16,19.00
2013,07,23,08,17,19.00
2013,07,23,08,18,19.00
2013,07,23,08,19,19.00
2013,07,23,08,20,19.00
2013,07,23,08,21,18.90
2013,07,23,08,22,18.90
2013,07,23,08,23,18.90
2013,07,23,08,24,19.00
2013,07,23,08,25,19.00
2013,07,23,08,26,19.10
2013,07,23,08,27,19.10
2013,07,23,08,28,19.10
2013,07,23,08,29,19.10
2013,07,23,08,30,19.20
2013,07,23,08,31,19.20
2013,07,23,08,32,19.20
2013,07,23,08,33,19.20
2013,07,23,08,34,19.30
2013,07,23,08,35,19.30
2013,07,23,08,36,19.40
2013,07,23,08,37,19.40
2013,07,23,08,38,19.40
2013,07,23,08,39,19.40
2013,07,23,08,40,19.50
2013,07,23,08,41,19.50
2013,07,23,08,42,19.50
2013,07,23,08,43,19.60
2013,07,23,08,44,19.60
2013,07,23,08,45,19.60
2013,07,23,08,46,19.60
2013,07,23,08,47,19.50
2013,07,23,08,48,19.50
2013,07,23,08,49,19.40
2013,07,23,08,50,19.40
2013,07,23,08,51,19.40
2013,07,23,08,52,19.40
2013,07,23,08,53,19.30
2013,07,23,08,54,19.20
2013,07,23,08,55,19.20
2013,07,23,08,56,19.20
2013,07,23,08,57,19.10
2013,07,23,08,58,19.00
2013,07,23,08,59,19.00
2013,07,23,09,00,19.00
2013,07,23,09,01,18.90
2013,07,23,09,02,18.90
2013,07,23,09,03,18.90
2013,07,23,09,04,18.90
2013,07,23,09,05,18.90
2013,07,23,09,06,18.90
2013,07,23,09,07,18.90
2013,07,23,09,08,18.90
2013,07,23,09,09,18.90
2013,07,23,09,10,18.90
2013,07,23,09,11,18.90
2013,07,23,09,12,19.00
2013,07,23,09,13,19.00
2013,07,23,09,14,19.00
2013,07,23,09,15,19.00
2013,07,23,09,16,19.00
2013,07,23,09,17,19.10
2013,07,23,09,18,19.10
2013,07,23,09,19,19.20
2013,07,23,09,20,19.20
2013,07,23,09,21,19.20
2013,07,23,09,22,19.20
2013,07,23,09,23,19.30
2013,07,23,09,24,19.30
2013,07,23,09,25,19.20
2013,07,23,09,26,19.20
2013,07,23,09,27,19.20
2013,07,23,09,28,19.20
2013,07,23,09,29,19.20
2013,07,23,09,30,19.20
2013,07,23,09,31,19.30
2013,07,23,09,32,19.30
2013,07,23,09,33,19.40
2013,07,23,09,34,19.40
2013,07,23,09,35,19.50
2013,07,23,09,36,19.60
2013,07,23,09,37,19.60
2013,07,23,09,38,19.70
2013,07,23,09,39,19.70
2013,07,23,09,40,19.80
2013,07,23,09,41,19.80
2013,07,23,09,42,19.80
2013,07,23,09,43,19.80
2013,07,23,09,44,19.90
2013,07,23,09,45,19.90
2013,07,23,09,46,19.90
2013,07,23,09,47,19.90
2013,07,23,09,48,19.90
2013,07,23,09,49,19.90
2013,07,23,09,50,19.90
2013,07,23,09,51,19.90
2013,07,23,09,52,19.90
2013,07,23,09,53,19.90
2013,07,23,09,54,19.90
2013,07,23,09,55,19.90
2013,07,23,09,56,19.90
2013,07,23,09,57,19.90
2013,07,23,09,58,19.90
2013,07,23,09,59,19.80
2013,07,23,10,00,19.80
2013,07,23,10,01,19.80
2013,07,23,10,02,19.80
2013,07,23,10,03,19.70
2013,07,23,10,04,19.70
2013,07,23,10,05,19.70
2013,07,23,10,06,19.70
2013,07,23,10,07,19.70
2013,07,23,10,08,19.70
2013,07,23,10,09,19.70
2013,07,23,10,10,19.70
2013,07,23,10,11,19.80
2013,07,23,10,12,19.80
2013,07,23,10,13,19.90
2013,07,23,10,14,20.00
2013,07,23,10,15,20.10
2013,07,23,10,16,20.20
2013,07,23,10,17,20.30
2013,07,23,10,18,20.40
2013,07,23,10,19,20.50
2013,07,23,10,20,20.50
2013,07,23,10,21,20.60
2013,07,23,10,22,20.60
2013,07,23,10,23,20.70
2013,07,23,10,24,20.70
2013,07,23,10,25,20.70
2013,07,23,10,26,20.70
2013,07,23,10,27,20.70
2013,07,23,10,28,20.70
2013,07,23,10,29,20.70
2013,07,23,10,30,20.70
2013,07,23,10,31,20.70
2013,07,23,10,32,20.70
2013,07,23,10,33,20.70
2013,07,23,10,34,20.70
2013,07,23,10,35,20.70
2013,07,23,10,36,20.70
2013,07,23,10,37,20.70
2013,07,23,10,38,20.70
2013,07,23,10,39,20.70
2013,07,23,10,40,20.70
2013,07,23,10,41,20.60
2013,07,23,10,42,20.60
2013,07,23,10,43,20.60
2013,07,23,10,44,20.60
2013,07,23,10,45,20.60
2013,07,23,10,46,20.60
2013,07,23,10,47,20.60
2013,07,23,10,48,20.50
2013,07,23,10,49,20.40
2013,07,23,10,50,20.40
2013,07,23,10,51,20.40
2013,07,23,10,52,20.30
2013,07,23,10,53,20.30
2013,07,23,10,54,20.30
2013,07,23,10,55,20.30
2013,07,23,10,56,20.30
2013,07,23,10,57,20.30
2013,07,23,10,58,20.40
2013,07,23,10,59,20.40
2013,07,23,11,00,20.30
2013,07,23,11,01,20.30
2013,07,23,11,02,20.30
2013,07,23,11,03,20.30
2013,07,23,11,04,20.30
2013,07,23,11,05,20.30
2013,07,23,11,06,20.30
2013,07,23,11,07,20.30
2013,07,23,11,08,20.30
2013,07,23,11,09,20.20
2013,07,23,11,10,20.20
2013,07,23,11,11,20.30
2013,07,23,11,12,20.30
2013,07,23,11,13,20.30
2013,07,23,11,14,20.30
2013,07,23,11,15,20.30
2013,07,23,11,16,20.40
2013,07,23,11,17,20.50
2013,07,23,11,18,20.50
2013,07,23,11,19,20.60
2013,07,23,11,20,20.60
2013,07,23,11,21,20.70
2013,07,23,11,22,20.60
2013,07,23,11,23,20.60
2013,07,23,11,24,20.70
2013,07,23,11,25,20.70
2013,07,23,11,26,20.70
2013,07,23,11,27,20.70
2013,07,23,11,28,20.70
2013,07,23,11,29,20.70
2013,07,23,11,30,20.70
2013,07,23,11,31,20.70
2013,07,23,11,32,20.70
2013,07,23,11,33,20.80
2013,07,23,11,34,20.80
2013,07,23,11,35,20.90
2013,07,23,11,36,21.00
2013,07,23,11,37,21.10
2013,07,23,11,38,21.20
2013,07,23,11,39,21.20
2013,07,23,11,40,21.20
2013,07,23,11,41,21.10
2013,07,23,11,42,21.10
2013,07,23,11,43,21.10
2013,07,23,11,44,21.10
2013,07,23,11,45,21.00
2013,07,23,11,46,21.00
2013,07,23,11,47,21.10
2013,07,23,11,48,21.00
2013,07,23,11,49,21.10
2013,07,23,11,50,21.10
2013,07,23,11,51,21.10
2013,07,23,11,52,21.10
2013,07,23,11,53,21.10
2013,07,23,11,54,21.20
2013,07,23,11,55,21.30
2013,07,23,11,56,21.40
2013,07,23,11,57,21.60
2013,07,23,11,58,21.70
2013,07,23,11,59,21.80
2013,07,23,12,00,21.80
2013,07,23,12,01,21.90
2013,07,23,12,02,21.90
2013,07,23,12,03,22.00
2013,07,23,12,04,22.10
2013,07,23,12,05,22.20
2013,07,23,12,06,22.30
2013,07,23,12,07,22.30
2013,07,23,12,08,22.30
2013,07,23,12,09,22.30
2013,07,23,12,10,22.30
2013,07,23,12,11,22.20
2013,07,23,12,12,22.10
2013,07,23,12,13,22.10
2013,07,23,12,14,22.00
2013,07,23,12,15,22.00
2013,07,23,12,16,22.10
2013,07,23,12,17,22.10
2013,07,23,12,18,22.10
2013,07,23,12,19,22.10
2013,07,23,12,20,22.10
2013,07,23,12,21,22.10
2013,07,23,12,22,22.10
2013,07,23,12,23,22.10
2013,07,23,12,24,22.10
2013,07,23,12,25,22.10
2013,07,23,12,26,22.10
2013,07,23,12,27,22.20
2013,07,23,12,28,22.20
2013,07,23,12,29,22.20
2013,07,23,12,30,22.30
2013,07,23,12,31,22.30
2013,07,23,12,32,22.20
2013,07,23,12,33,22.10
2013,07,23,12,34,22.00
2013,07,23,12,35,22.00
2013,07,23,12,36,22.00
2013,07,23,12,37,21.90
2013,07,23,12,38,21.90
2013,07,23,12,39,21.80
2013,07,23,12,40,21.80
2013,07,23,12,41,21.80
2013,07,23,12,42,21.80
2013,07,23,12,43,21.80
2013,07,23,12,44,21.90
2013,07,23,12,45,21.90
2013,07,23,12,46,21.90
2013,07,23,12,47,21.80
2013,07,23,12,48,21.80
2013,07,23,12,49,21.80
2013,07,23,12,50,21.80
2013,07,23,12,51,21.80
2013,07,23,12,52,21.80
2013,07,23,12,53,21.90
2013,07,23,12,54,22.00
2013,07,23,12,55,22.10
2013,07,23,12,56,22.20
2013,07,23,12,57,22.30
2013,07,23,12,58,22.40
2013,07,23,12,59,22.40
2013,07,23,13,00,22.50
2013,07,23,13,01,22.60
2013,07,23,13,02,22.60
2013,07,23,13,03,22.70
2013,07,23,13,04,22.70
2013,07,23,13,05,22.70
2013,07,23,13,06,22.70
2013,07,23,13,07,22.70
2013,07,23,13,08,22.70
2013,07,23,13,09,22.80
2013,07,23,13,10,22.90
2013,07,23,13,11,23.00
2013,07,23,13,12,23.10
2013,07,23,13,13,23.10
2013,07,23,13,14,23.10
2013,07,23,13,15,23.10
2013,07,23,13,16,23.10
2013,07,23,13,17,23.00
2013,07,23,13,18,22.90
2013,07,23,13,19,22.90
2013,07,23,13,20,22.80
2013,07,23,13,21,22.70
2013,07,23,13,22,22.70
2013,07,23,13,23,22.70
2013,07,23,13,24,22.70
2013,07,23,13,25,22.70
2013,07,23,13,26,22.70
2013,07,23,13,27,22.70
2013,07,23,13,28,22.70
2013,07,23,13,29,22.70
2013,07,23,13,30,22.80
2013,07,23,13,31,22.90
2013,07,23,13,32,23.00
2013,07,23,13,33,23.00
2013,07,23,13,34,23.00
2013,07,23,13,35,23.10
2013,07,23,13,36,23.10
2013,07,23,13,37,23.10
2013,07,23,13,38,23.10
2013,07,23,13,39,23.10
2013,07,23,13,40,23.00
2013,07,23,13,41,23.10
2013,07,23,13,42,23.10
2013,07,23,13,43,23.10
2013,07,23,13,44,23.00
2013,07,23,13,45,23.00
2013,07,23,13,46,22.90
2013,07,23,13,47,22.80
2013,07,23,13,48,22.70
2013,07,23,13,49,22.70
2013,07,23,13,50,22.70
2013,07,23,13,51,22.70
2013,07,23,13,52,22.70
2013,07,23,13,53,22.70
2013,07,23,13,54,22.70
2013,07,23,13,55,22.60
2013,07,23,13,56,22.60
2013,07,23,13,57,22.60
2013,07,23,13,58,22.70
2013,07,23,13,59,22.70
2013,07,23,14,00,22.80
2013,07,23,14,01,22.90
2013,07,23,14,02,22.90
2013,07,23,14,03,23.00
2013,07,23,14,04,23.00
2013,07,23,14,05,23.10
2013,07,23,14,06,23.10
2013,07,23,14,07,23.20
2013,07,23,14,08,23.30
2013,07,23,14,09,23.40
2013,07,23,14,10,23.50
2013,07,23,14,11,23.50
2013,07,23,14,12,23.40
2013,07,23,14,13,23.40
2013,07,23,14,14,23.40
2013,07,23,14,15,23.50
2013,07,23,14,16,23.40
2013,07,23,14,17,23.40
2013,07,23,14,18,23.20
2013,07,23,14,19,23.10
2013,07,23,14,20,22.90
2013,07,23,14,21,22.80
2013,07,23,14,22,22.80
2013,07,23,14,23,22.80
2013,07,23,14,24,22.80
2013,07,23,14,25,22.80
2013,07,23,14,26,22.80
2013,07,23,14,27,22.80
2013,07,23,14,28,22.90
2013,07,23,14,29,22.90
2013,07,23,14,30,23.00
2013,07,23,14,31,23.00
2013,07,23,14,32,23.10
2013,07,23,14,33,23.10
2013,07,23,14,34,23.10
2013,07,23,14,35,23.20
2013,07,23,14,36,23.30
2013,07,23,14,37,23.40
2013,07,23,14,38,23.60
2013,07,23,14,39,23.70
2013,07,23,14,40,23.80
2013,07,23,14,41,23.90
2013,07,23,14,42,24.00
2013,07,23,14,43,24.10
2013,07,23,14,44,24.30
2013,07,23,14,45,24.40
2013,07,23,14,46,24.60
2013,07,23,14,47,24.70
2013,07,23,14,48,24.90
2013,07,23,14,49,25.00
2013,07,23,14,50,25.20
2013,07,23,14,51,25.30
2013,07,23,14,52,25.30
2013,07,23,14,53,25.30
2013,07,23,14,54,25.20
2013,07,23,14,55,25.00
2013,07,23,14,56,24.80
2013,07,23,14,57,24.70
2013,07,23,14,58,24.60
2013,07,23,14,59,24.60
2013,07,23,15,00,24.60
2013,07,23,15,01,24.70
2013,07,23,15,02,24.80
2013,07,23,15,03,24.90
2013,07,23,15,04,25.00
2013,07,23,15,05,25.00
2013,07,23,15,06,25.10
2013,07,23,15,07,25.20
2013,07,23,15,08,25.30
2013,07,23,15,09,25.50
2013,07,23,15,10,25.60
2013,07,23,15,11,25.70
2013,07,23,15,12,25.70
2013,07,23,15,13,25.70
2013,07,23,15,14,25.70
2013,07,23,15,15,25.60
2013,07,23,15,16,25.60
2013,07,23,15,17,25.50
2013,07,23,15,18,25.40
2013,07,23,15,19,25.30
2013,07,23,15,20,25.20
2013,07,23,15,21,25.20
2013,07,23,15,22,25.20
2013,07,23,15,23,25.10
2013,07,23,15,24,25.00
2013,07,23,15,25,25.00
2013,07,23,15,26,25.10
2013,07,23,15,27,25.20
2013,07,23,15,28,25.30
2013,07,23,15,29,25.40
2013,07,23,15,30,25.50
2013,07,23,15,31,25.60
2013,07,23,15,32,25.70
2013,07,23,15,33,25.80
2013,07,23,15,34,25.90
2013,07,23,15,35,25.90
2013,07,23,15,36,25.90
2013,07,23,15,37,25.90
2013,07,23,15,38,25.90
2013,07,23,15,39,25.90
2013,07,23,15,40,25.90
2013,07,23,15,41,25.90
2013,07,23,15,42,25.80
2013,07,23,15,43,25.80
2013,07,23,15,44,25.70
2013,07,23,15,45,25.70
2013,07,23,15,46,25.80
2013,07,23,15,47,25.70
2013,07,23,15,48,25.60
2013,07,23,15,49,25.60
2013,07,23,15,50,25.50
2013,07,23,15,51,25.40
2013,07,23,15,52,25.30
2013,07,23,15,53,25.30
2013,07,23,15,54,25.30
2013,07,23,15,55,25.30
2013,07,23,15,56,25.30
2013,07,23,15,57,25.20
2013,07,23,15,58,25.20
2013,07,23,15,59,25.20
2013,07,23,16,00,25.20
2013,07,23,16,01,25.20
2013,07,23,16,02,25.20
2013,07,23,16,03,25.20
2013,07,23,16,04,25.20
2013,07,23,16,05,25.10
2013,07,23,16,06,25.10
2013,07,23,16,07,25.20
2013,07,23,16,08,25.20
2013,07,23,16,09,25.20
2013,07,23,16,10,25.20
2013,07,23,16,11,25.30
2013,07,23,16,12,25.40
2013,07,23,16,13,25.50
2013,07,23,16,14,25.50
2013,07,23,16,15,25.50
2013,07,23,16,16,25.50
2013,07,23,16,17,25.40
2013,07,23,16,18,25.40
2013,07,23,16,19,25.40
2013,07,23,16,20,25.40
2013,07,23,16,21,25.40
2013,07,23,16,22,25.30
2013,07,23,16,23,25.30
2013,07,23,16,24,25.30
2013,07,23,16,25,25.30
2013,07,23,16,26,25.40
2013,07,23,16,27,25.40
2013,07,23,16,28,25.50
2013,07,23,16,29,25.60
2013,07,23,16,30,25.70
2013,07,23,16,31,25.80
2013,07,23,16,32,25.90
2013,07,23,16,33,25.90
2013,07,23,16,34,26.00
2013,07,23,16,35,26.10
2013,07,23,16,36,26.20
2013,07,23,16,37,26.20
2013,07,23,16,38,26.30
2013,07,23,16,39,26.40
2013,07,23,16,40,26.50
2013,07,23,16,41,26.60
2013,07,23,16,42,26.70
2013,07,23,16,43,26.80
2013,07,23,16,44,26.80
2013,07,23,16,45,26.80
2013,07,23,16,46,26.90
2013,07,23,16,47,27.00
2013,07,23,16,48,27.00
2013,07,23,16,49,27.10
2013,07,23,16,50,27.20
2013,07,23,16,51,27.20
2013,07,23,16,52,27.20
2013,07,23,16,53,27.20
2013,07,23,16,54,27.20
2013,07,23,16,55,27.20
2013,07,23,16,56,27.20
2013,07,23,16,57,27.20
2013,07,23,16,58,27.20
2013,07,23,16,59,27.20
2013,07,23,17,00,27.20
2013,07,23,17,01,27.10
2013,07,23,17,02,27.00
2013,07,23,17,03,27.00
2013,07,23,17,04,27.00
2013,07,23,17,05,26.90
2013,07,23,17,06,26.80
2013,07,23,17,07,26.70
2013,07,23,17,08,26.60
2013,07,23,17,09,26.60
2013,07,23,17,10,26.50
2013,07,23,17,11,26.50
2013,07,23,17,12,26.60
2013,07,23,17,13,26.60
2013,07,23,17,14,26.60
2013,07,23,17,15,26.70
2013,07,23,17,16,26.60
2013,07,23,17,17,26.60
2013,07,23,17,18,26.70
2013,07,23,17,19,26.70